Terminal Aerodrome Forecast
Issued by NWS Tuscon, AZ

Home | Current Version | Previous Version | Text Only | Print | Product List | Glossary On
Versions: 1 2 3 4 5 6 7 8 9 10 11 12
000
FTUS45 KTWC 172324
TAFTUS
TAF
KTUS 172324Z 1800/1824 32013G23KT P6SM FEW150 SCT250
     FM180200 23005KT P6SM SCT140 BKN250
     FM180700 14007KT P6SM FEW140 BKN200
     FM181700 34008KT P6SM BKN250=

USA.gov is the U.S. government's official web portal to all federal, state and local government web resources and services.